Flight Track Log - Related Links

Times and Time Zones

All times are in EDT time to prevent confusion due to time zone crossing. See the SWA407 flight status page for this flight to view local times or setup timezone preferences in your user account.

Time Position Orientation Groundspeed Altitude Reporting Facility
EDT Latitude Longitude Course Direction KTS MPH feet Rate Location/Type
Thu 11:03:32 PM 37.6500 -122.3667 360° North 162 186 1,300  Level Northern Cal TRACON
Thu 11:04:32 PM 37.7000 -122.3667 360° North 218 251 4,900 3,450 Climbing Northern Cal TRACON
Thu 11:05:32 PM 37.6833 -122.4333 252° West 249 287 8,200 3,000 Climbing Northern Cal TRACON
Thu 11:06:32 PM 37.6000 -122.4500 189° South 307 353 10,900 2,289 Climbing Northern Cal TRACON
Thu 11:06:48 PM 37.5881 -122.4583 209° Southwest 291 335 11,100 2,769 Climbing Oakland Center
Thu 11:07:50 PM 37.4922 -122.4750 188° South 330 380 14,500 3,220 Climbing Oakland Center
Thu 11:08:51 PM 37.3914 -122.4928 188° South 358 412 17,700 3,197 Climbing Oakland Center
Thu 11:09:52 PM 37.2633 -122.5169 189° South 380 437 21,000 2,927 Climbing Oakland Center
Thu 11:10:54 PM 37.1519 -122.5375 188° South 397 457 23,700 2,468 Climbing Oakland Center
Thu 11:11:56 PM 37.0361 -122.5583 188° South 415 478 26,100 2,098 Climbing Oakland Center
Thu 11:12:57 PM 36.9150 -122.5606 181° South 435 501 28,000 1,770 Climbing Oakland Center
Thu 11:13:58 PM 36.7922 -122.5242 167° South 454 522 29,700 1,574 Climbing Oakland Center
Thu 11:14:59 PM 36.6936 -122.4219 140° Southeast 458 527 31,200 1,366 Climbing Oakland Center
Thu 11:16:01 PM 36.5956 -122.3086 137° Southeast 475 547 32,500 1,415 Climbing Oakland Center
Thu 11:17:02 PM 36.4944 -122.1950 138° Southeast 488 562 34,100 1,756 Climbing Oakland Center
Thu 11:18:04 PM 36.3728 -122.0597 138° Southeast 491 565 36,100 1,805 Climbing Oakland Center
Thu 11:19:05 PM 36.2717 -121.9486 138° Southeast 488 562 37,800 1,426 Climbing Oakland Center
Thu 11:20:06 PM 36.1733 -121.8389 138° Southeast 479 551 39,000 585 Climbing Oakland Center
Thu 11:21:08 PM 36.0825 -121.7397 139° Southeast 476 548 39,000  Level Oakland Center
Thu 11:22:09 PM 35.9847 -121.6333 139° Southeast 471 542 39,000  Level Oakland Center
Thu 11:23:11 PM 35.8692 -121.5031 138° Southeast 469 540 39,000  Level Oakland Center
Thu 11:24:12 PM 35.7700 -121.3983 139° Southeast 470 541 39,000  Level Oakland Center
Thu 11:25:13 PM 35.6722 -121.2900 138° Southeast 473 544 39,000  Level Oakland Center
Thu 11:26:14 PM 35.5742 -121.1853 139° Southeast 471 542 39,000  Level Oakland Center
Thu 11:27:16 PM 35.4783 -121.0747 137° Southeast 473 544 39,000  Level Oakland Center
Thu 11:28:17 PM 35.4050 -120.9433 124° Southeast 469 540 39,000  Level Oakland Center
Thu 11:29:15 PM 35.3289 -120.8106 125° Southeast 474 545 39,000  Level Los Angeles Center
Thu 11:30:17 PM 35.2525 -120.6753 125° Southeast 481 554 39,000  Level Los Angeles Center
Thu 11:31:20 PM 35.1756 -120.5400 125° Southeast 482 555 39,000  Level Los Angeles Center
Thu 11:32:22 PM 35.0981 -120.4036 125° Southeast 486 559 39,000  Level Los Angeles Center
Thu 11:33:24 PM 35.0211 -120.2678 125° Southeast 484 557 39,000  Level Los Angeles Center
Thu 11:34:26 PM 34.9272 -120.1056 125° Southeast 484 557 39,000  Level Los Angeles Center
Thu 11:35:28 PM 34.8581 -119.9861 125° Southeast 484 557 39,000  Level Los Angeles Center
Thu 11:36:30 PM 34.7658 -119.8272 125° Southeast 483 556 39,000  Level Los Angeles Center
Thu 11:37:32 PM 34.6894 -119.6958 125° Southeast 479 551 39,000  Level Los Angeles Center
Thu 11:38:34 PM 34.6108 -119.5664 126° Southeast 477 549 39,000  Level Los Angeles Center
Thu 11:39:36 PM 34.5386 -119.4431 125° Southeast 475 547 39,000  Level Los Angeles Center
Thu 11:40:38 PM 34.4475 -119.2886 126° Southeast 472 543 39,000  Level Los Angeles Center
Thu 11:41:41 PM 34.3717 -119.1608 126° Southeast 468 539 39,000  Level Los Angeles Center
Thu 11:42:43 PM 34.2947 -119.0350 126° Southeast 468 539 39,000  Level Los Angeles Center
Thu 11:43:45 PM 34.2197 -118.9069 125° Southeast 468 539 39,000  Level Los Angeles Center
Thu 11:44:46 PM 34.1428 -118.7808 126° Southeast 467 537 39,000  Level Los Angeles Center
Thu 11:45:48 PM 34.0672 -118.6561 126° Southeast 462 532 39,000 -435 Level Los Angeles Center
Thu 11:46:50 PM 33.9922 -118.5303 126° Southeast 462 532 38,100 -1,887 Descending Los Angeles Center
Thu 11:47:52 PM 33.8950 -118.3833 129° Southeast 467 537 35,100 -2,613 Descending Los Angeles Center
Thu 11:48:54 PM 33.8022 -118.2703 135° Southeast 455 524 32,700 -2,177 Descending Los Angeles Center
Thu 11:49:56 PM 33.7194 -118.1558 131° Southeast 455 524 30,600 -2,129 Descending Los Angeles Center
Thu 11:50:58 PM 33.6375 -118.0539 134° Southeast 427 491 28,300 -2,177 Descending Los Angeles Center
Thu 11:52:00 PM 33.5581 -117.9533 133° Southeast 416 479 26,100 -2,081 Descending Los Angeles Center
Thu 11:53:02 PM 33.4808 -117.8578 134° Southeast 403 464 24,000 -2,325 Descending Los Angeles Center
Thu 11:53:20 PM 33.4500 -117.8167 132° Southeast 392 451 23,000 -2,385 Descending Southern California TRACON
Thu 11:54:20 PM 33.3667 -117.7167 135° Southeast 395 455 20,900 -1,657 Descending Southern California TRACON
Thu 11:55:05 PM 33.3442 -117.6853 131° Southeast 394 453 20,100 -1,963 Descending Los Angeles Center
Thu 11:56:07 PM 33.2431 -117.5592 134° Southeast 374 430 17,400 -2,323 Descending Los Angeles Center
Thu 11:57:09 PM 33.1586 -117.4867 144° Southeast 372 428 15,300 -1,935 Descending Los Angeles Center
Thu 11:58:11 PM 33.0756 -117.4192 146° Southeast 364 419 13,400 -1,839 Descending Los Angeles Center
Thu 11:59:13 PM 32.9967 -117.3564 146° Southeast 347 399 11,500 -1,887 Descending Los Angeles Center
Fri 12:00:15 AM 32.9192 -117.2942 146° Southeast 338 389 9,500 -1,317 Descending Los Angeles Center
Fri 12:01:16 AM 32.8614 -117.2483 146° Southeast 324 373 8,800 -1,306 Descending Los Angeles Center
Fri 12:02:19 AM 32.7867 -117.1536 133° Southeast 298 343 6,800 -1,488 Descending Los Angeles Center
Fri 12:03:21 AM 32.7581 -117.0719 113° Southeast 277 319 5,700 -878 Descending Los Angeles Center
Fri 12:04:22 AM 32.7339 -116.9983 111° Southeast 250 288 5,000 -537 Descending Los Angeles Center
Fri 12:05:24 AM 32.7025 -116.9389 122° Southeast 229 264 4,600 -774 Descending Los Angeles Center
Fri 12:06:26 AM 32.6828 -116.9831 242° Southwest 221 254 3,400 -1,016 Descending Los Angeles Center
Fri 12:07:28 AM 32.7003 -117.0511 287° West 187 215 2,500 -821 Descending Los Angeles Center
Fri 12:08:23 AM 32.7167 -117.1000 292° West 160 184 1,800 -835 Descending Southern California TRACON
Fri 12:09:23 AM 32.7167 -117.1500 270° West 139 160 900 -646 Descending Southern California TRACON
Fri 12:10:33 AM 32.7336 -117.1886 298° West 144 166 400 -429 Descending Los Angeles Center

Login

Don't have an account? Register now (free) for customized features, flight alerts, and more!